Regional Weather Roundup
Issued by NWS San Diego, CA

Home | Current Version | Previous Version | Text Only | Print | Product List | Glossary On
Versions: 1 2 3 4 5 6 7 8 9 10 11 12 13 14 15 16 17 18 19 20 21 22 23 24 25 26 27 28 29 30 31 32 33 34 35 36 37 38 39 40 41 42 43 44 45 46 47 48 49 50
000
ASUS46 KSGX 252310
RWRSGX

SAN DIEGO HOURLY WEATHER ROUNDUP
NATIONAL WEATHER SERVICE SAN DIEGO CA
400 PM PDT SAT OCT 25 2014

NOTE: "FAIR" INDICATES FEW OR NO CLOUDS BELOW 12,000 FEET WITH NO
SIGNIFICANT WEATHER AND/OR OBSTRUCTIONS TO VISIBILITY.

CAZ042-043-060-061-PZZ750-775-260000-

GREATER SAN DIEGO AREA

CITY           SKY/WX    TMP DP  RH WIND       PRES   REMARKS
LINDBERGH FLD  MOSUNNY   73  63  68 NW8       30.02F
POINT LOMA       N/A     71  62  73 NW15        N/A
NATIONAL CITY    N/A     75  64  69 W3        30.02F
CHULA VISTA      N/A     74  66  75 W8        29.95F
IMPERIAL BEACH SUNNY     72  63  73 NW9       30.02F
BROWN FIELD    MOSUNNY   71  60  68 W7        30.02F
MIRAMAR MCAS   MOSUNNY   74  59  59 NW6       30.01F
MONTGOMERY FLD SUNNY     74  61  63 NW9       30.02F

$$

NORTH SAN DIEGO COUNTY

CITY           SKY/WX    TMP DP  RH WIND       PRES   REMARKS
CAMP PENDLETON SUNNY     75  58  55 S9        29.99F
OCEANSIDE AP   SUNNY     73  62  68 W8        29.99F
OCEANSIDE HBR    N/A     71  65  82 W15       30.03F
VISTA            N/A     74  62  66 W3        29.98F
CARLSBAD       SUNNY     71  62  73 W10       30.00F
DEL MAR          N/A     74  65  74 CALM      30.04F
LA JOLLA SCRIP   N/A     70  66  86 CALM      29.99F
FALLBROOK        N/A     77  55  47 S5        30.00F
ESCONDIDO        N/A     75  56  50 NW3       30.01F
SAN MARCOS       N/A     76  61  59 W12       29.98F
POWAY            N/A     78  58  48 S2        30.01F

$$

EAST SAN DIEGO COUNTY

CITY           SKY/WX    TMP DP  RH WIND       PRES   REMARKS
RAMONA         SUNNY     75  52  44 W12       30.03S
SANTEE LAKES     N/A     77  57  49 W12       30.01F
LA MESA          N/A     75  62  64 NW8       29.95S
JAMUL            N/A     75  61  60 CALM      29.99S
DESCANSO N       N/A     72  57  60 W7        29.88S
MT. LAGUNA OBS   N/A     66  44  44 W6        29.76F
CAMPO            N/A     79  53  40 W12G18    30.01S

$$

ORANGE COUNTY AND THE LOS ANGELES BASIN

CITY           SKY/WX    TMP DP  RH WIND       PRES   REMARKS
JOHN WAYNE AP  MOSUNNY   77  58  51 SW7       30.01S
LAKE FOREST FR   N/A     81  50  33 CALM      29.89F
SANTA ANA        N/A     80  63  55 SW2       29.95F
HUNTINGTON BCH   N/A     73  65  76 W10       30.03F
LOS ALAMITOS   FAIR      80  54  40 W9        30.00F
FULLERTON      MOSUNNY   82  47  29 VRB5      29.99S
LONG BEACH     SUNNY     77  55  46 W12       30.00F
L.A. AP        MOSUNNY   72  59  63 W17       30.01F
L.A. DOWNTOWN  SUNNY     76  49  38 VRB3      30.00F

$$

THE INLAND EMPIRE

CITY           SKY/WX    TMP DP  RH WIND       PRES   REMARKS
CORONA         SUNNY     83  45  26 W14G20    29.99F
CHINO          MOSUNNY   83  53  35 W14       30.00F
ONTARIO        MOSUNNY   84  46  26 W15G22    30.00S
SAN BERNARDINO MOSUNNY   84  39  20 W10       30.00F
RIVERSIDE AP   SUNNY     83  46  27 W14       29.99F
RIV CYN CREST    N/A     82  56  39 SW5       29.97S
MORENO VALLEY    N/A     85  49  29 W5        29.20F
MARCH ARB      SUNNY     82  46  27 NW14      30.01F
HORSETHIEF CYN   N/A     84  45  24 SW6       29.98F
PERRIS           N/A     82  48  30 NW6       29.96F
MENIFEE          N/A     88  50  27 S7        30.04F
HEMET EAST       N/A     85  41  21 CALM      29.97S
FRENCH VALLEY  FAIR      81  50  34 S13       30.01S
TEMECULA         N/A     82  53  36 SW7       29.96R

$$

SAN BERNARDINO AND RIVERSIDE COUNTY MOUNTAINS

CITY           SKY/WX    TMP DP  RH WIND       PRES   REMARKS
BIG BEAR AP    SUNNY     59  37  44 CALM      30.25F
ANGELUS OAKS     N/A     64  43  45 W1        29.92S
PINE COVE        N/A     60  43  52 NW3       29.91F

$$

SOUTHERN DESERT INCLUDING THE COACHELLA VALLEY

CITY           SKY/WX    TMP DP  RH WIND       PRES   REMARKS
PALM SPRINGS   MOSUNNY   94  46  19 W6        29.90F
THOUSAND PALMS   N/A     94  48  20 NW8       29.85F
PALM DESERT      N/A     97  52  22 CALM      29.99
THERMAL        SUNNY     94  49  21 SE5       29.84F
BLYTHE         SUNNY     94  48  20 SE6       29.88F
IMPERIAL AP    SUNNY     94  47  20 CALM      29.85F
EL CENTRO NAS  MOSUNNY   95  45  17 E8        29.85F
YUMA AZ        SUNNY     95  46  18 CALM      29.87F
MEXICALI       SUNNY     95  43  16 CALM      29.87

$$

UPPER DESERT

CITY           SKY/WX    TMP DP  RH WIND       PRES   REMARKS
VICTORVILLE AP MOSUNNY   81  39  22 W10G18    30.04S
HESPERIA         N/A     76  46  35 W5        30.06S
APPLE VALLEY     N/A     77  43  29 S22G29    30.10S
PALMDALE       SUNNY     78  40  25 SW17G26   30.06S
LANCASTER      SUNNY     77  42  28 SW17G26   30.04F
EDWARDS AFB    MOSUNNY   80  41  25 SW18G35   30.02S
DAGGETT        SUNNY     86  40  19 SW18G24   29.97F
29 PALMS N     MOSUNNY   86  44  23 SW12      30.03F
NEEDLES        SUNNY     94  45  18 W10G17    29.90F

$$

REGIONAL REPORTS

CITY           SKY/WX    TMP DP  RH WIND       PRES   REMARKS
SANTA BARBARA  SUNNY     73  61  65 W15G23    29.99F
SANDBERG       SUNNY     72  39  30 S16G28    30.14S
MT. WILSON       N/A     68  30  24 SW10        N/A
LAS VEGAS NV   MOSUNNY   86  39  19 SW21G30   29.91F
PHOENIX AZ     SUNNY     95  47  19 W5        29.90F
TIJUANA        PTSUNNY   72  59  64 W8        30.05S
ENSENADA NW      N/A     72  32  23 W8        29.98F

$$

OFFSHORE ISLANDS

CITY           SKY/WX    TMP DP  RH WIND       PRES   REMARKS
CATALINA ARPT  SUNNY     67  57  70 W9        30.07F
SAN NICOLAS IS MOSUNNY   68  61  78 W21       30.04F

$$

MARINE AND OFFSHORE BUOY REPORTS

STATION/POSITION SKY/WX   TEMP    WIND        PRES    SWELL
                          AIR SEA DIR/SP/G            HT/PER/DIR
                          (F)     (DEG/KT/KT) (MB)    (FT/S/D)
TANNER BANKS               67 69  310/ 14/ 16 1017.3F   5/310/12
S CLEMENTE BASIN           69 71  310/ 12/ 14 1016.5F   3/280/11
SAN NICOLAS IS.               67                N/A     3/290/11
SO. S. ROSA ISLA           67 70  290/ 16/ 17 1016.9F   5/11
W. S. BARBARA CH           65 65  320/  8/ 12 1016.8F   7/290/11
S. MONICA BASIN            68 70  280/ 16/ 19 1016.3F   2/270/11
S PEDRO CHANNEL               70                N/A     2/250/12
DANA POINT                    70                N/A     2/200/15
CMP PENDLETON NS              71                N/A     2/210/15
OCEANSIDE OFFSHR              72                N/A     2/210/15
TORREY PINES OTR              72                N/A     2/210/15
LA JOLLA 1                 71 71  330/  6/  7 1016.5F
MISSION BAY BUOY              72                N/A     2/260/13
SAN DIEGO BAY                 74              1016.9F
POINT LOMA SOUTH              72                N/A     2/200/15

$$




USA.gov is the U.S. government's official web portal to all federal, state and local government web resources and services.